When you browse on this site, cookies collect data to enhance your experience and personalize the content and advertising you see.
Visit our Privacy Policy to learn more. By continuing to use the site, you agree to this use of cookies and data.
  • In Portugal
  • List of Countries
  • For 7 days
  • Water Temperature
  • Satellite Maps
  • Weather Map
  • Weather Widgets
  • user-avatar
    Login

    Hourly Weather Hobart

    Today, 24 January, Thursday

    Time Temperature Precipitation Wind Pressure Humidity
    00:00 +10°C° 0 mm 1 mps 752 mmHg 82%
    01:00 +10°C° 0 mm 1 mps 751 mmHg 84%
    02:00 +10°C° 0 mm 1 mps 751 mmHg 85%
    03:00 +9°C° 0 mm 1 mps 751 mmHg 85%
    04:00 +10°C° 0 mm 1 mps 750 mmHg 85%
    05:00 +10°C° 0 mm 2 mps 751 mmHg 78%
    06:00 +13°C° 0 mm 2 mps 751 mmHg 70%
    07:00 +14°C° 0 mm 2 mps 751 mmHg 63%
    08:00 +17°C° 0 mm 2 mps 750 mmHg 55%
    09:00 +20°C° 0 mm 2 mps 750 mmHg 46%
    10:00 +24°C° 0 mm 2 mps 750 mmHg 38%
    11:00 +25°C° 0 mm 2 mps 749 mmHg 35%
    12:00 +27°C° 0 mm 3 mps 749 mmHg 33%
    13:00 +28°C° 0 mm 4 mps 749 mmHg 31%
    14:00 +28°C° 0 mm 4 mps 748 mmHg 31%
    15:00 +28°C° 0 mm 5 mps 747 mmHg 31%
    16:00 +29°C° 0 mm 5 mps 747 mmHg 31%
    17:00 +28°C° 0 mm 5 mps 746 mmHg 35%
    18:00 +27°C° 0 mm 5 mps 746 mmHg 38%
    19:00 +26°C° 0 mm 4 mps 745 mmHg 41%
    20:00 +23°C° 0 mm 4 mps 744 mmHg 44%
    21:00 +22°C° 0 mm 5 mps 744 mmHg 47%
    22:00 +20°C° 0 mm 5 mps 743 mmHg 50%
    23:00 +20°C° 0 mm 4 mps 742 mmHg 48%

    Tomorrow, 25 January, Friday

    Time Temperature Precipitation Wind Pressure Humidity
    00:00 +21°C° 0 mm 4 mps 742 mmHg 46%
    01:00 +21°C° 0 mm 4 mps 741 mmHg 44%
    02:00 +22°C° 0 mm 4 mps 740 mmHg 41%
    03:00 +23°C° 0 mm 4 mps 740 mmHg 38%
    04:00 +26°C° 0 mm 4 mps 739 mmHg 35%
    05:00 +27°C° 0 mm 4 mps 739 mmHg 33%
    06:00 +29°C° 0 mm 5 mps 739 mmHg 31%
    07:00 +30°C° 0 mm 5 mps 738 mmHg 29%
    08:00 +34°C° 0 mm 5 mps 738 mmHg 26%
    09:00 +36°C° 0 mm 6 mps 738 mmHg 24%
    10:00 +40°C° 0 mm 6 mps 738 mmHg 21%
    11:00 +40°C° 0 mm 6 mps 738 mmHg 22%
    12:00 +40°C° 0 mm 5 mps 738 mmHg 23%
    13:00 +41°C° 0 mm 5 mps 737 mmHg 25%
    14:00 +40°C° 0 mm 5 mps 737 mmHg 26%
    15:00 +38°C° 0 mm 4 mps 737 mmHg 28%
    16:00 +37°C° 0 mm 4 mps 736 mmHg 30%
    17:00 +33°C° 0.5 mm 3 mps 737 mmHg 40%
    18:00 +29°C° 0.5 mm 2 mps 737 mmHg 49%
    19:00 +25°C° 0.5 mm 2 mps 737 mmHg 59%
    20:00 +24°C° 0.1 mm 2 mps 737 mmHg 61%
    21:00 +21°C° 0.1 mm 2 mps 738 mmHg 64%
    22:00 +19°C° 0.1 mm 2 mps 738 mmHg 66%
    23:00 +19°C° 0 mm 2 mps 738 mmHg 69%

    Day after tomorrow, 26 January, Saturday

    Time Temperature Precipitation Wind Pressure Humidity
    00:00 +19°C° 0 mm 2 mps 738 mmHg 71%
    01:00 +18°C° 0 mm 2 mps 738 mmHg 74%
    02:00 +18°C° 0 mm 2 mps 739 mmHg 72%
    03:00 +18°C° 0 mm 2 mps 739 mmHg 70%
    04:00 +18°C° 0 mm 2 mps 739 mmHg 68%
    05:00 +18°C° 0 mm 2 mps 740 mmHg 66%
    06:00 +18°C° 0 mm 2 mps 740 mmHg 64%
    07:00 +18°C° 0 mm 2 mps 741 mmHg 62%
    08:00 +19°C° 0 mm 2 mps 741 mmHg 56%
    09:00 +22°C° 0 mm 1 mps 741 mmHg 50%
    10:00 +23°C° 0 mm 1 mps 742 mmHg 44%
    11:00 +26°C° 0 mm 2 mps 741 mmHg 39%
    12:00 +28°C° 0 mm 2 mps 741 mmHg 34%
    13:00 +30°C° 0 mm 2 mps 741 mmHg 30%
    14:00 +28°C° 0 mm 3 mps 740 mmHg 38%
    15:00 +25°C° 0 mm 4 mps 740 mmHg 46%
    16:00 +22°C° 0 mm 4 mps 739 mmHg 54%
    17:00 +20°C° 0 mm 3 mps 739 mmHg 64%
    18:00 +18°C° 0 mm 3 mps 739 mmHg 74%
    19:00 +16°C° 0 mm 2 mps 740 mmHg 84%
    20:00 +15°C° 0.1 mm 2 mps 740 mmHg 84%
    21:00 +15°C° 0.1 mm 2 mps 740 mmHg 84%
    22:00 +15°C° 0.1 mm 2 mps 740 mmHg 84%
    23:00 +14°C° 0 mm 2 mps 740 mmHg 85%

    27 January, Sunday

    Time Temperature Precipitation Wind Pressure Humidity
    00:00 +13°C° 0 mm 2 mps 740 mmHg 86%
    01:00 +12°C° 0 mm 2 mps 740 mmHg 87%
    02:00 +12°C° 0 mm 2 mps 740 mmHg 86%
    03:00 +12°C° 0 mm 2 mps 740 mmHg 86%
    04:00 +12°C° 0 mm 2 mps 740 mmHg 85%
    05:00 +13°C° 0 mm 2 mps 740 mmHg 78%
    06:00 +14°C° 0 mm 3 mps 741 mmHg 71%
    07:00 +16°C° 0 mm 3 mps 741 mmHg 63%
    08:00 +17°C° 0 mm 4 mps 741 mmHg 61%
    09:00 +17°C° 0 mm 4 mps 741 mmHg 59%
    10:00 +18°C° 0 mm 4 mps 741 mmHg 56%
    11:00 +19°C° 0 mm 5 mps 741 mmHg 52%
    12:00 +20°C° 0 mm 5 mps 741 mmHg 48%
    13:00 +21°C° 0 mm 6 mps 741 mmHg 43%
    14:00 +21°C° 0 mm 6 mps 741 mmHg 44%
    15:00 +20°C° 0 mm 6 mps 741 mmHg 44%
    16:00 +20°C° 0 mm 6 mps 741 mmHg 45%
    17:00 +19°C° 0 mm 6 mps 741 mmHg 49%
    18:00 +17°C° 0 mm 5 mps 742 mmHg 53%
    19:00 +17°C° 0 mm 4 mps 742 mmHg 57%
    20:00 +15°C° 0 mm 4 mps 743 mmHg 61%
    21:00 +15°C° 0 mm 4 mps 743 mmHg 64%
    22:00 +14°C° 0 mm 3 mps 744 mmHg 68%
    23:00 +13°C° 0 mm 3 mps 744 mmHg 71%

    28 January, Monday

    Time Temperature Precipitation Wind Pressure Humidity
    00:00 +13°C° 0 mm 3 mps 744 mmHg 74%
    01:00 +12°C° 0 mm 3 mps 744 mmHg 77%
    02:00 +13°C° 0 mm 3 mps 744 mmHg 75%
    03:00 +13°C° 0 mm 3 mps 743 mmHg 72%
    04:00 +13°C° 0 mm 3 mps 743 mmHg 70%
    05:00 +14°C° 0 mm 4 mps 743 mmHg 67%
    06:00 +15°C° 0 mm 4 mps 743 mmHg 63%
    07:00 +17°C° 0 mm 4 mps 743 mmHg 60%
    08:00 +19°C° 0 mm 5 mps 743 mmHg 54%
    09:00 +21°C° 0 mm 5 mps 743 mmHg 47%
    10:00 +23°C° 0 mm 6 mps 742 mmHg 41%
    11:00 +24°C° 0 mm 6 mps 742 mmHg 39%
    12:00 +26°C° 0 mm 6 mps 741 mmHg 36%
    13:00 +27°C° 0 mm 7 mps 741 mmHg 34%
    14:00 +27°C° 0 mm 7 mps 741 mmHg 35%
    15:00 +27°C° 0 mm 8 mps 741 mmHg 37%
    16:00 +26°C° 0 mm 8 mps 741 mmHg 38%
    17:00 +23°C° 0 mm 7 mps 741 mmHg 46%
    18:00 +21°C° 0 mm 7 mps 741 mmHg 54%
    19:00 +19°C° 0 mm 6 mps 742 mmHg 62%
    20:00 +19°C° 0 mm 6 mps 742 mmHg 63%
    21:00 +19°C° 0 mm 5 mps 743 mmHg 63%
    22:00 +18°C° 0 mm 4 mps 744 mmHg 64%
    23:00 +18°C° 0 mm 4 mps 744 mmHg 67%

    29 January, Tuesday

    Time Temperature Precipitation Wind Pressure Humidity
    00:00 +17°C° 0 mm 3 mps 744 mmHg 69%
    01:00 +17°C° 0 mm 2 mps 744 mmHg 72%
    02:00 +17°C° 0 mm 2 mps 744 mmHg 72%
    03:00 +17°C° 0 mm 2 mps 744 mmHg 72%
    04:00 +16°C° 0 mm 2 mps 744 mmHg 72%
    05:00 +17°C° 0 mm 2 mps 744 mmHg 69%
    06:00 +18°C° 0 mm 3 mps 744 mmHg 65%
    07:00 +18°C° 0 mm 3 mps 745 mmHg 62%
    08:00 +20°C° 0 mm 3 mps 745 mmHg 56%
    09:00 +22°C° 0 mm 3 mps 745 mmHg 50%
    10:00 +23°C° 0 mm 4 mps 745 mmHg 44%
    11:00 +26°C° 0 mm 4 mps 744 mmHg 39%
    12:00 +28°C° 0 mm 4 mps 744 mmHg 35%
    13:00 +30°C° 0 mm 4 mps 744 mmHg 31%
    14:00 +29°C° 0 mm 5 mps 744 mmHg 33%
    15:00 +28°C° 0 mm 5 mps 744 mmHg 35%
    16:00 +28°C° 0 mm 5 mps 744 mmHg 37%
    17:00 +26°C° 0 mm 5 mps 744 mmHg 44%
    18:00 +23°C° 0 mm 4 mps 744 mmHg 50%
    19:00 +21°C° 0 mm 4 mps 745 mmHg 57%
    20:00 +20°C° 0 mm 3 mps 745 mmHg 65%
    21:00 +18°C° 0 mm 2 mps 745 mmHg 74%
    22:00 +16°C° 0 mm 2 mps 746 mmHg 83%
    23:00 +15°C° 0 mm 1 mps 746 mmHg 85%
    Show more